This is the latest recevied weather packets stored in our database for station/object AG1T-20. If no packets are shown the sender has not sent any weather packets the latest 10 day(s).
| Time | Temp. | Humidity | Pressure | Rain* | Wind** | Luminosity | Snow |
|---|---|---|---|---|---|---|---|
| 1787934004 | 22.78° C | 53% | 1021.2 hPa | 0 mm | - | 410 W/m² | - |
| 1787933404 | 22.78° C | 59% | 1021.2 hPa | 0 mm | - | 248 W/m² | - |
| 1787932804 | 22.22° C | 61% | 1021.2 hPa | 0 mm | - | 328 W/m² | - |
| 1787932205 | 23.33° C | 56% | 1022 hPa | 0 mm | - | 670 W/m² | - |
| 1787931604 | 21.67° C | 59% | 1022 hPa | 0 mm | - | 410 W/m² | - |
| 1787931004 | 20.56° C | 65% | 1022 hPa | 0 mm | - | 224 W/m² | - |
| 1787930404 | 20.56° C | 64% | 1022 hPa | 0 mm | - | 94 W/m² | - |
| 1787929804 | 21.11° C | 58% | 1022 hPa | 0 mm | - | 68 W/m² | - |
| 1787929204 | 21.67° C | 55% | 1022 hPa | 0 mm | - | 124 W/m² | - |
| 1787928604 | 21.11° C | 55% | 1021.2 hPa | 0 mm | - | 67 W/m² | - |
| 1787928004 | 19.44° C | 65% | 1021.2 hPa | 0 mm | - | 81 W/m² | - |
| 1787927404 | 19.44° C | 63% | 1021.2 hPa | 0 mm | - | 32 W/m² | - |
| 1787926804 | 20° C | 62% | 1021.2 hPa | 0 mm | - | 38 W/m² | - |
| 1787926204 | 20° C | 62% | 1021.2 hPa | 0 mm | - | 44 W/m² | - |
| 1787925604 | 20° C | 61% | 1021.2 hPa | 0 mm | - | 34 W/m² | - |
| 1787925004 | 20° C | 62% | 1020.6 hPa | 0 mm | - | 54 W/m² | - |
| 1787924405 | 19.44° C | 62% | 1020.6 hPa | 0 mm | - | 38 W/m² | - |
| 1787923804 | 18.89° C | 63% | 1020.6 hPa | 0 mm | - | 23 W/m² | - |
| 1787923205 | 19.44° C | 63% | 1020.6 hPa | 0 mm | - | 20 W/m² | - |
| 1787922605 | 18.89° C | 63% | 1020.6 hPa | 0 mm | - | 10 W/m² | - |
| 1787922004 | 18.89° C | 63% | 1020.6 hPa | 0 mm | - | 5 W/m² | - |
| 1787921404 | 18.33° C | 63% | 1020.2 hPa | 0 mm | - | 1 W/m² | - |
| 1787920804 | 18.33° C | 65% | 1020.2 hPa | 0 mm | - | 0 W/m² | - |
| 1787920205 | 18.89° C | 63% | 1020.2 hPa | 0 mm | - | 0 W/m² | - |
| 1787919604 | 20° C | 58% | 1020.2 hPa | 0 mm | - | 0 W/m² | - |
* Rain latest hour (hover to see other rain measurements)
** Current wind speed in m/s (hover to see current wind gust speed)